Location: Brunsbüttel
(52.3892°N, 10.6138°E)
Time: 23:44:31
(UTC+00:00)

Cosmos 1733 - Pass Details

Date: 19 May 2025
Orbit: 374 x 380 km, 82.5° (Epoch: 22 June)

Event Time Altitude Azimuth Distance (km) Brightness Sun altitude
Rises 20:31:14 0° 347° (NNW) 2,316 7.8 -9.5°
Maximum altitude 20:36:24 70° 262° (W) 427 2.9 -9.9°
Enters shadow 20:39:19 11° 178° (S) 1,356 4.8 -10.2°
